Regional Weather Roundup
Issued by NWS

Home | Current Version | Previous Version | Graphics & Text | Print | Product List | Glossary On
Versions: 1 2 3 4 5 6 7 8 9 10 11 12 13 14 15 16 17 18 19 20 21 22 23 24 25 26 27 28 29 30 31 32 33 34 35 36 37 38 39 40 41 42 43 44 45 46 47 48 49 50
811
ASUS43 KLMK 270210
RWRKY
KENTUCKY REGIONAL WEATHER ROUNDUP
NATIONAL WEATHER SERVICE LOUISVILLE KY
1000 PM EDT FRI AUG 26 2016

NOTE "FAIR" INDICATES FEW OR NO CLOUDS BELOW 12,000 FEET
WITH NO SIGNIFICANT WEATHER AND/OR OBSTRUCTIONS TO VISIBILITY.

KYZ001>023-026-027-061>063-070>075-270300-
WESTERN AND SOUTH CENTRAL KENTUCKY

CITY           SKY/WX    TMP DP  RH WIND       PRES   REMARKS
PADUCAH        CLOUDY    75  72  90 CALM      30.08R
HENDERSON      CLOUDY    75  70  83 CALM      30.06S
OWENSBORO      CLOUDY    81  75  81 N3        30.08R
HOPKINSVILLE   CLOUDY    83  76  80 NE1       30.06S HX  91
BOWLING GREEN  CLOUDY    81  75  82 NE5       30.07S
GLASGOW        PTCLDY    77  76  99 CALM      30.08F
$$

KYZ024-025-028>034-038-045-046-053-270300-
NORTH CENTRAL KENTUCKY

CITY           SKY/WX    TMP DP  RH WIND       PRES   REMARKS
LOUISVILLE/SDF CLOUDY    84  66  54 SE3       30.08R
LOUISVILLE/LOU PTCLDY    84  68  58 CALM      30.09R
FORT KNOX      CLOUDY    78  73  86 NE2       30.08R
$$

KYZ035>037-039>044-047>052-055>060-089>105-270300-
NORTHEAST KENTUCKY

CITY           SKY/WX    TMP DP  RH WIND       PRES   REMARKS
LEXINGTON      CLEAR     80  70  71 NE5       30.13R
COVINGTON      PTCLDY    79  69  71 NE3       30.13R
FRANKFORT      CLEAR     79  71  76 CALM      30.11R
$$

KYZ054-064>069-076>088-106>120-270300-
SOUTHEAST KENTUCKY

CITY           SKY/WX    TMP DP  RH WIND       PRES   REMARKS
JACKSON        CLEAR     79  67  66 CALM      30.16R
LONDON         CLEAR     79  69  71 CALM      30.14R
SOMERSET       CLEAR     75  72  88 CALM      30.13S
MIDDLESBORO    PTCLDY    76  73  91 CALM      30.15R
MONTICELLO     MOCLDY   N/A N/A N/A N12       30.13S
$$





USA.gov is the U.S. government's official web portal to all federal, state and local government web resources and services.